sat.trackr.live / text

‹ back to catalog

STARLINK-36911

NORAD 68008 · 2026-039Y

PAYLOAD ACTIVE UNKNOWN

§ Identity

Operator
Country
US
Launch date
2026-02-27
Launch site
AFETR
Launch vehicle
Mass (kg)
RCS (m²)

Purposes: comms

External: N2YO · Heavens-Above · Gunter

§ Orbital elements

Epoch: 2026-05-24T22:22:53.126112Z

Period
94.27 min
Inclination
43.0053°
Eccentricity
0.0001624
Mean motion
15.27579056 rev/d
Perigee alt
481.9 km
Apogee alt
484.2 km
Semi-major
6,861.2 km
B*
3.1590e-4
RAAN
338.3558°
Arg perigee
264.0393°
Mean anomaly
96.0273°
Rev number
1,336

§ Raw data

STARLINK-369111 68008U 26039Y   26144.93255933  .00008440  00000+0  31590-3 0  99942 68008  43.0053 338.3558 0001624 264.0393  96.0273 15.27579056 13361

JSON: /api/v1/satellites/68008 · /tle

For live sub-satellite position, see the globe view (requires WebGL).

§ Visibility from observer

Set your observer location to see the next 7 days of passes ≥ 10°. The values pass through the URL so the page stays shareable.

No JS? Fill the form by hand. The geolocation button needs JavaScript.